Whitefield, NH

2:45 PM EDT on September 26, 2017 (GMT -0400)
Mount Washington Regional

Weather History for KHIE - September, 2013

Change the Weather History Date:

Sunday, September 8, 2013

  Actual Average Record
Temperature  
Mean Temperature 50 °F -  
Max Temperature 59 °F 71 °F 90 °F (2002)
Min Temperature 37 °F 42 °F 33 °F (2000)
Degree Days  
Heating Degree Days 16    
Moisture  
Dew Point 46 °F    
Average Humidity 78    
Maximum Humidity 94    
Minimum Humidity 49    
Precipitation  
Precipitation 0.25 in - - ()
Sea Level Pressure  
Sea Level Pressure 29.88 in    
Wind  
Wind Speed 3 mph (NW)    
Max Wind Speed 17 mph    
Max Gust Speed 24 mph    
Visibility 9 miles    
Events Rain    
Averages and records for this station are not official NWS values.
T = Trace of Precipitation, MM = Missing Value Source: NWS Daily Summary

Daily Weather History Graph

Daily Weather History Graph

Search for Another Location

Airport or City:

Trip Planner

Search our weather history database for the weather conditions in past years. The results will help you decide how hot, cold, wet, or windy it might be!

Date:

Astronomy

Sep. 08, 2013 Rise Set
Actual Time 6:17 AM EDT 7:09 PM EDT
Civil Twilight 5:47 AM EDT 7:38 PM EDT
Nautical Twilight 5:12 AM EDT 8:13 PM EDT
Astronomical Twilight 4:35 AM EDT 8:50 PM EDT
Moon 9:41 AM EDT (9/8) 8:32 PM EDT (9/8)
Length of Visible Light 13h 50m
Length of Day
12h 52m
Waxing Crescent, 11% of the Moon is Illuminated
Sep 8
Waxing Crescent
Sep 12
First Quarter
Sep 19
Full
Sep 26
Last Quarter
Oct 4
New

Hourly Weather History & Observations

Time (EDT) Temp. Windchill Dew Point Humidity Pressure Visibility Wind Dir Wind Speed Gust Speed Precip Events Conditions
12:52 AM 60.1 °F - 46.9 °F 62% 29.83 in 10.0 mi Calm Calm - 0.00 in Rain Light Rain
1:52 AM 55.9 °F - 52.0 °F 87% 29.82 in 10.0 mi Calm Calm - 0.01 in   Overcast
2:52 AM 55.9 °F - 52.0 °F 87% 29.80 in 10.0 mi Calm Calm - 0.01 in   Overcast
3:52 AM 55.9 °F - 53.1 °F 90% 29.79 in 10.0 mi Calm Calm - 0.00 in   Overcast
4:36 AM 55.4 °F - 53.6 °F 94% 29.78 in 10.0 mi Calm Calm - N/A   Overcast
4:52 AM 55.9 °F - 53.1 °F 90% 29.78 in 10.0 mi Calm Calm - N/A   Overcast
5:52 AM 55.9 °F - 53.1 °F 90% 29.76 in 10.0 mi Calm Calm - 0.00 in   Overcast
6:33 AM 55.4 °F - 51.8 °F 88% 29.78 in 1.8 mi WNW 3.5 mph - 0.10 in Rain Heavy Rain
6:50 AM 55.4 °F - 51.8 °F 88% 29.78 in 3.0 mi Calm Calm - 0.18 in Rain Rain
6:51 AM 55.9 °F - 52.0 °F 87% 29.79 in 3.0 mi Calm Calm - 0.18 in Rain Light Rain
7:52 AM 55.0 °F - 52.0 °F 89% 29.79 in 6.0 mi Calm Calm - 0.03 in Rain Light Rain
8:19 AM 55.4 °F - 50.0 °F 82% 29.80 in 9.0 mi North 12.7 mph 17.3 mph 0.01 in Rain Light Rain
8:30 AM 53.6 °F - 48.2 °F 82% 29.81 in 10.0 mi NNW 6.9 mph 16.1 mph 0.01 in   Overcast
8:44 AM 53.6 °F - 48.2 °F 82% 29.82 in 10.0 mi North 3.5 mph - 0.01 in   Overcast
8:52 AM 54.0 °F - 48.9 °F 83% 29.83 in 10.0 mi North 3.5 mph - 0.01 in   Overcast
9:52 AM 54.0 °F - 48.9 °F 83% 29.85 in 10.0 mi WNW 3.5 mph - 0.00 in   Overcast
10:15 AM 55.4 °F - 48.2 °F 77% 29.84 in 10.0 mi West 3.5 mph - N/A   Overcast
10:52 AM 57.0 °F - 46.9 °F 69% 29.86 in 10.0 mi WNW 11.5 mph 18.4 mph N/A   Scattered Clouds
11:52 AM 52.0 °F - 43.0 °F 71% 29.89 in 10.0 mi North 10.4 mph 24.2 mph N/A   Overcast
12:03 PM 51.8 °F - 44.6 °F 76% 29.88 in 10.0 mi North 6.9 mph - 0.00 in Rain Light Rain
12:52 PM 54.0 °F - 43.0 °F 66% 29.90 in 10.0 mi Variable 6.9 mph 17.3 mph 0.00 in   Overcast
1:42 PM 53.6 °F - 44.6 °F 72% 29.91 in 10.0 mi NW 12.7 mph 23.0 mph 0.01 in Rain Light Rain
1:52 PM 55.0 °F - 46.0 °F 72% 29.92 in 10.0 mi Variable 6.9 mph 17.3 mph 0.01 in   Mostly Cloudy
2:52 PM 57.9 °F - 39.9 °F 51% 29.92 in 10.0 mi NW 17.3 mph 23.0 mph N/A   Overcast
3:52 PM 55.9 °F - 39.9 °F 55% 29.94 in 10.0 mi NNW 8.1 mph - N/A   Mostly Cloudy
4:52 PM 57.0 °F - 37.9 °F 49% 29.95 in 10.0 mi NNW 8.1 mph 17.3 mph N/A   Clear
5:52 PM 57.0 °F - 37.9 °F 49% 29.97 in 10.0 mi NNW 9.2 mph - N/A   Scattered Clouds
6:52 PM 52.0 °F - 37.9 °F 59% 30.00 in 10.0 mi NW 6.9 mph - N/A   Partly Cloudy
7:52 PM 46.0 °F 44.8 °F 39.9 °F 79% 30.03 in 10.0 mi South 3.5 mph - N/A   Clear
8:52 PM 42.1 °F - 37.9 °F 85% 30.06 in 10.0 mi Calm Calm - N/A   Clear
9:52 PM 41.0 °F - 37.0 °F 86% 30.09 in 10.0 mi Calm Calm - N/A   Clear
10:52 PM 39.0 °F - 36.0 °F 89% 30.09 in 10.0 mi Calm Calm - N/A   Clear
11:52 PM 37.0 °F - 34.0 °F 89% 30.11 in 10.0 mi Calm Calm - N/A   Clear